Vertical_Velocity
-2 -1 -1 1 1 -0 -1 -3 1 0 0 1 0 1 2 2 -0 1 -1 -3 -1 -1
0 -2 -2 -0 0 -0 -1 -1 -1 0 0 1 1 -1 -1 1 -0 1 2 -1 -0 2
-0 -2 -1 -1 -1 1 -0 1 2 1 0 1 1 1 -1 1 2 2 1 -1 0 0
0 -0 -1 -2 -2 2 -3 -1 -3 0 1 1 3 1 1 -1 -1 0 0 -0 5 0
-2 -1 -1 -0 1 4 6 5 0 1 -0 5 1 -0 1 3 2 2 2 1 3 2
-1 -1 -0 2 -2 -2 1 4 4 -3 33 -7 3 3 -1 0 1 1 1 -3 3 3
-1 -2 2 3 -0 1 4 1 4 0 -2 -1 2 -1 -7 0 1 -1 -2 -0 3 -2
1 -1 -0 1 6 -1 1 3 -4 4 -2 5 -3 -5 3 -8 10 -0 4 -0 -2 0
0 -1 -1 -2 4 1 9 0 1 4 2 3 9 4 -2 3 7 1 1 -1 -0 -1
-0 -1 -1 -0 -3 3 -2 4 -2 -4 -1 -0 -0 -2 -1 -0 5 -2 11 -4 5 0
-0 0 -0 -2 2 1 -2 1 -3 -1 1 0 -2 -0 -1 0 2 -1 -5 -7 5 -3
-0 -0 0 -0 6 3 3 1 1 1 0 1 -3 6 1 -2 -4 -1 -2 -0 4 -3
0 -2 -0 -0 6 4 1 1 0 -2 -2 3 2 5 1 1 1 -0 -2 2 1 2
0 -2 -0 0 5 3 2 -1 -2 -1 0 -1 6 6 2 -3 -1 -0 1 1 2 0
Height
3047 3045 3044 3042 3041 3040 3040 3040 3042 3042 3043 3044 3046 3050 3053 3055 3058 3060 3062 3064 3067 3072
3039 3038 3036 3035 3032 3031 3030 3031 3032 3033 3034 3037 3038 3041 3044 3047 3050 3053 3055 3056 3061 3064
3032 3030 3028 3026 3023 3021 3020 3020 3022 3023 3026 3028 3030 3032 3035 3038 3043 3046 3048 3051 3054 3055
3025 3022 3020 3018 3015 3015 3012 3013 3014 3016 3018 3020 3023 3025 3028 3031 3034 3038 3040 3042 3046 3048
3017 3014 3012 3010 3009 3009 3008 3010 3009 3010 3012 3014 3016 3019 3021 3024 3027 3030 3032 3036 3039 3042
3011 3007 3004 3003 3001 3003 3003 3004 3004 3005 3006 3008 3011 3014 3016 3018 3021 3024 3026 3029 3032 3035
3005 3000 2997 2996 2996 2997 2997 2998 2999 3000 3001 3003 3006 3009 3011 3013 3015 3018 3021 3023 3026 3029
3000 2996 2991 2990 2991 2991 2992 2992 2993 2995 2996 2999 3001 3003 3005 3008 3009 3012 3015 3017 3020 3022
2995 2990 2986 2984 2984 2984 2985 2985 2987 2988 2990 2991 2993 2997 2999 3001 3004 3006 3008 3011 3014 3016
2988 2985 2980 2977 2976 2977 2979 2979 2981 2982 2984 2984 2986 2990 2993 2995 2998 3000 3003 3006 3009 3011
2982 2979 2974 2970 2970 2971 2972 2973 2974 2974 2975 2976 2980 2984 2987 2990 2992 2996 2999 3002 3004 3007
2975 2973 2969 2965 2963 2965 2966 2966 2966 2966 2967 2971 2973 2978 2981 2984 2987 2991 2994 2997 2999 3002
2969 2967 2963 2960 2960 2960 2961 2960 2960 2961 2962 2964 2968 2973 2976 2979 2983 2986 2990 2992 2995 2998
2962 2961 2958 2955 2956 2957 2956 2956 2957 2958 2958 2961 2965 2969 2973 2976 2980 2982 2985 2988 2991 2994